Weather History for MZBZ - September, 2013

Change the Weather History Date:

Sunday, September 1, 2013

  Actual Average Record
Temperature  
Mean Temperature 82 °F -  
Max Temperature 86 °F 88 °F 91 °F (1998)
Min Temperature 77 °F 75 °F 75 °F (1997)
Cooling Degree Days 16    
Growing Degree Days 32 (Base 50)    
Moisture  
Dew Point 77 °F    
Average Humidity 84    
Maximum Humidity 100    
Minimum Humidity 71    
Precipitation  
Precipitation 0.59 in 0.36 in - ()
Sea Level Pressure  
Sea Level Pressure 29.85 in    
Wind  
Wind Speed 4 mph ()    
Max Wind Speed 9 mph    
Max Gust Speed -    
Visibility 5.5 miles    
Events Rain , Thunderstorm    
Averages and records for this station are not official NWS values.
T = Trace of Precipitation, MM = Missing Value Source: Averaged Metar Reports

Daily Weather History Graph

Daily Weather History Graph

Search for Another Location

Airport or City:

Trip Planner

Search our weather history database for the weather conditions in past years. The results will help you decide how hot, cold, wet, or windy it might be!

Date:

Astronomy

Sep. 01, 2013 Rise Set
Actual Time 5:39 AM CST 6:06 PM CST
Civil Twilight 5:17 AM CST 6:28 PM CST
Nautical Twilight 4:51 AM CST 6:54 PM CST
Astronomical Twilight 4:25 AM CST 7:20 PM CST
Moon 2:21 AM CST (9/1) 3:26 PM CST (9/1)
Length of Visible Light 13h 11m
Length of Day
12h 27m
Waning Crescent, 13% of the Moon is Illuminated
Sep 1
Waning Crescent
Sep 5
New
Sep 12
First Quarter
Sep 19
Full
Sep 26
Last Quarter

Hourly Weather History & Observations

Time (CST) Temp. Heat Index Dew Point Humidity Pressure Visibility Wind Dir Wind Speed Gust Speed Precip Events Conditions
5:00 AM 77.0 °F - 77.0 °F 100% 29.84 in 6.2 mi Calm Calm - N/A   Scattered Clouds
6:00 AM 77 °F - 76 °F 98% 29.86 in 6 mi Calm Calm - -   Partly Cloudy
6:00 AM 77.0 °F - 77.0 °F 100% 29.85 in 5.6 mi Calm Calm - N/A   Mostly Cloudy
7:00 AM 77.0 °F - 71.6 °F 83% 29.88 in 1.9 mi South 5.8 mph - N/A Rain Rain Showers
7:34 AM 77.0 °F - 71.6 °F 83% 29.88 in 4.3 mi ENE 6.9 mph - N/A   Mostly Cloudy
8:00 AM 80.6 °F 87.1 °F 77.0 °F 89% 29.89 in 5.6 mi East 3.5 mph - N/A   Mostly Cloudy
9:00 AM 82 °F - 78 °F 83% 29.91 in 4 mi East 2.3 mph - - Rain Light Rain Showers
9:00 AM 82.4 °F 90.9 °F 77.0 °F 84% 2.99 in 4.3 mi East 9.2 mph - N/A Rain Light Rain Showers
9:48 AM 82.4 °F 90.9 °F 77.0 °F 84% 29.90 in 3.1 mi East 4.6 mph - N/A Rain Light Rain Showers
10:00 AM 84.2 °F 96.1 °F 78.8 °F 84% 29.90 in 4.3 mi East 9.2 mph - N/A   Mostly Cloudy
11:00 AM 84.2 °F 94.1 °F 77.0 °F 79% 29.90 in 3.7 mi East 5.8 mph - N/A   Mostly Cloudy
12:00 PM 84 °F - 77 °F 73% 29.88 in 4 mi SSE 5.8 mph - -   Partly Cloudy
12:00 PM 84.2 °F 94.1 °F 77.0 °F 79% 29.88 in 3.7 mi SSE 5.8 mph - N/A   Mostly Cloudy
12:30 PM - - 77.0 °F N/A% 29.87 in 3.1 mi SSE 4.6 mph - N/A Rain Light Rain Showers
12:45 PM 84.2 °F 94.1 °F 77.0 °F 79% 29.86 in 5.0 mi SE 3.5 mph - N/A Rain , Thunderstorm Light Thunderstorms and Rain
1:00 PM 80.6 °F 88.1 °F 78.8 °F 94% 29.85 in 3.1 mi SE 5.8 mph - N/A Rain Light Rain Showers
1:10 PM 80.6 °F 88.1 °F 78.8 °F 94% 29.85 in 4.3 mi East 9.2 mph - N/A Thunderstorm Thunderstorm
1:22 PM 80.6 °F 88.1 °F 78.8 °F 94% 29.84 in 4.3 mi East 4.6 mph - N/A   Mostly Cloudy
2:00 PM 86.0 °F 96.9 °F 77.0 °F 74% 29.82 in 4.3 mi ESE 4.6 mph - N/A Thunderstorm Thunderstorm
2:12 PM 86.0 °F 96.9 °F 77.0 °F 74% 29.81 in 6.2 mi SSE 5.8 mph - N/A   Mostly Cloudy
3:00 PM 86 °F - 78 °F 71% 29.80 in 12 mi ESE 3.5 mph - - Thunderstorm Light Thunderstorm
3:00 PM 86.0 °F 99.3 °F 78.8 °F 79% 29.79 in 6.2 mi ESE 3.5 mph - N/A   Mostly Cloudy
4:00 PM 86.0 °F 99.3 °F 78.8 °F 79% 29.78 in 6.2 mi Variable 2.3 mph - N/A   Mostly Cloudy
5:00 PM 84.2 °F 94.1 °F 77.0 °F 79% 29.79 in 6.2 mi East 5.8 mph - N/A   Mostly Cloudy
6:00 PM 83 °F - 77 °F 78% 29.84 in 14 mi East 5.8 mph - -   Partly Cloudy
6:00 PM 84.2 °F 94.1 °F 77.0 °F 79% 29.83 in 6.2 mi East 5.8 mph - N/A   Mostly Cloudy
9:00 PM 82 °F - 76 °F 79% 29.89 in 12 mi East 6.9 mph - -   Partly Cloudy